Regional Weather Roundup
Issued by NWS Upton, NY

Current Version | Previous Version | Text Only | Print | Product List | Glossary On
Versions: 1 2 3 4 5 6 7 8 9 10 11 12 13 14 15 16 17 18 19 20 21 22 23 24 25 26 27 28
000
ASUS41 KOKX 201009
RWROKX

REGIONAL WEATHER ROUNDUP
NATIONAL WEATHER SERVICE NEW YORK NY
600 AM EDT FRI OCT 20 2017

NOTE: "FAIR" INDICATES FEW OR NO CLOUDS BELOW 12,000 FEET WITH NO
SIGNIFICANT WEATHER AND/OR OBSTRUCTIONS TO VISIBILITY.

NYZ071-072-176-178-NJZ106-104-201100-
NEW YORK CITY METRO AREA

CITY           SKY/WX    TMP DP  RH WIND       PRES   REMARKS
Central Park   FAIR      58  46  64 VRB3      30.13R
Bronx Bot Gard   N/A     59  45  58 NW5       30.13R
LaGuardia APRT FAIR      64  46  52 W13G20    30.10R
Kennedy INTL   FAIR      59  48  67 W10       30.11R
Breezy Point     N/A     59 N/A N/A W8G14       N/A
Newark/Liberty FAIR      55  47  74 W8        30.11R
Teterboro      FAIR      53  46  77 CALM      30.10R
$$

NYZ177-179-078>081-201100-
LONG ISLAND NEW YORK

CITY           SKY/WX    TMP DP  RH WIND       PRES   REMARKS
Jones Beach      N/A     59 N/A N/A W5          N/A
Matinecock PT    N/A     63 N/A N/A W17         N/A
Farmingdale    FAIR      52  47  83 W5        30.09R
MacArthur/ISP  FAIR      54  48  80 W6        30.08R
Shirley        FAIR      58  49  72 NW7       30.08R
Mt Sinai Harb    N/A    N/A N/A N/A W10G17      N/A
Westhampton    FAIR      58  48  69 W8        30.08R
East Hampton   FAIR      59  53  78 NW6       30.05R
Montauk          N/A     62  53  72 NW10G16   30.06R
$$

NYZ052-065-067-201100-
HUDSON VALLEY

CITY           SKY/WX    TMP DP  RH WIND       PRES   REMARKS
White Plains   FAIR      56  46  69 SW5       30.08S
Larchmont Harb   N/A     59 N/A N/A W9          N/A
Croton On Huds   N/A     61 N/A N/A NW14        N/A
Newburgh       CLEAR     54  45  71 W9        30.11R
Montgomery     FAIR      44  42  93 W7        30.11R
Poughkeepsie   FAIR      43  41  93 CALM      30.09R
Albany         FAIR      53  44  71 W8        30.09R
$$

NJZ001-105-106-008-010-013-015-019>022-104-201100-
NEW JERSEY

CITY           SKY/WX    TMP DP  RH WIND       PRES   REMARKS
Newark/Liberty FAIR      55  47  74 W8        30.11R
Teterboro      FAIR      53  46  77 CALM      30.10R
Caldwell       FAIR      50  47  89 CALM      30.12R
Somerville     FAIR      41  41 100 CALM      30.11S
Linden         FAIR      55  46  72 NW7       30.12R
Perth Amboy      N/A     54 N/A N/A W8          N/A
Sussex         FAIR      42  41  96 CALM      30.14R
Andover          N/A     44  43  96 CALM      30.14R
Trenton        FAIR      55  47  74 W6        30.13R
Millville      FAIR      51  50  96 W7        30.15R
Atlantic City  FAIR      54  51  90 W5        30.14R
Wrightstown    FAIR      54  48  80 W6        30.11R
Toms River       N/A     47  46  97 W5        30.13R
Belmar         FAIR      51  47  86 W3        30.13R
$$

PAZ047>061-062-071-201100-
EASTERN PENNSYLVANIA

CITY           SKY/WX    TMP DP  RH WIND       PRES   REMARKS
Philadelphia   FAIR      59  46  62 W9        30.15R
Allentown      FAIR      47  44  90 SW5       30.14R
Scranton       FAIR      50  45  83 W3        30.16R
$$

CTZ002-004>006-009-010-012-RIZ004-006-007-MAZ004-011-015-201100-
SOUTHERN NEW ENGLAND
 IN CT

CITY           SKY/WX    TMP DP  RH WIND       PRES   REMARKS
Bradley INTL   FAIR      55  42  61 W9        30.06R
Hartford       FAIR      48  46  93 CALM      30.07R
Danbury        FAIR      48  45  89 CALM      30.10R
Wtrbury/Oxford FAIR      48  44  86 CALM      30.09R
Norwalk Harbor   N/A     55 N/A N/A W7          N/A
Bridgeport     FAIR      53  46  77 NW6       30.08R
Meriden        FAIR      42  42 100 CALM      30.08R FOG
New Haven      FAIR      55  49  80 NW5       30.08R
Chester        FAIR      57  46  67 NW6       30.06R
Groton         FAIR      54  46  74 N8        30.05R
Wilimantic     FAIR      47  46  97 SW5       30.06R

 IN RI

CITY           SKY/WX    TMP DP  RH WIND       PRES   REMARKS
Providence     FAIR      55  47  74 W6        30.04R
Block Island   FAIR      59  51  75 NW7       30.05R
Westerly       FAIR      52  49  89 CALM      30.05R
 IN MA

CITY           SKY/WX    TMP DP  RH WIND       PRES   REMARKS
Boston         FAIR      61  46  57 W15       29.99R
Worcester      FAIR      53  42  66 W10       30.02S
Westfield      FAIR      57  44  62 W5        30.05R
Provincetown   FAIR      58  52  80 W14       29.99S
Nantucket      FAIR      60  60 100 W10       30.00F
$$

ANZ330-335-338-340-345-350-353-355-201100-
COASTAL MARINE OBSERVATIONS


STATION/POSITION TIME  SKY/WX   TEMP    WIND        PRES    VSBY  WAVE
                                AIR SEA DIR/SP/G                  HT/PER
                 (UTC)          (F)     (DEG/KT/KT) (MB)    (MI)  (FT/S)
NY HARB ENTRANCE 0950            63 65  290/ 16/ 19 1018.4          3/ 8
20 S FIRE ISLAND 0950            64 64  300/ 16/ 19 1018.6          4/ 8
GREAT SOUTH BAY  0845            59 61  300/  8/ 10   N/A
15 E BARNEGAT LI NOT AVBL
HUDSON CANYON    0850            65 65  260/ 16/ 17 1018.1          4/ 5
KINGS POINT      0942            62 65  330/  7/ 10 1019.8
EXECUTION ROCKS  0945            63     250/ 12/ 14   N/A
WESTERN LI SOUND 0849            63     270/ 12/ 14   N/A           1
CENTRAL LI SOUND 0900            65     280/ 16/ 19   N/A           2
EASTERN LI SOUND NOT AVBL
ROBBINS REEF     0942            60     270/  5/  6 1020.0
$$


>>>>>>>>>>>>>>>>>>>>>>>>>>>> KEY <<<<<<<<<<<<<<<<<<<<<<<<<<<
>                                                          <
>     SKY/WX - Sky Condition/Present Weather               <
>     TMP    - Temperature in Fahrenheit                   <
>     DP     - Dew Point in Fahrenheit                     <
>     RH     - Relative Humidity in Percent                <
>     WIND   - Direction (from) and Speed in MPH           <
>     PRES   - Mean Sea Level Pressure (inches of Hg)      <
>     WCI    - Wind Chill Index                            <
>     VSB    - VISIBILITY IN MILES                         <
>     HX     - HEAT INDEX                                  <
>     TC     - TEMPERATURE IN CELSIUS                      <
>     VRB    - VARIABLE WIND DIRECTION                     <
>                                                          <
>>>>>>>>>>>>>>>>>>>>>>>>>>>> KEY <<<<<<<<<<<<<<<<<<<<<<<<<<<




USA.gov is the U.S. government's official web portal to all federal, state and local government web resources and services.